When you browse on this site, cookies collect data to enhance your experience and personalize the content and advertising you see.
Visit our Privacy Policy to learn more. By continuing to use the site, you agree to this use of cookies and data.
  • In Hungary
  • List of Countries
  • For 7 days
  • Water Temperature
  • Weather Map
  • News
  • Weather Widgets
  • user-avatar
    Login

    Hourly Weather Yablunytsya

    Today, 30 March, Monday

    Time Temperature Precipitation Wind Pressure Humidity
    00:00 +6°C° 0 mm 2 mps 700 mmHg 88%
    01:00 +5°C° 0 mm 2 mps 700 mmHg 94%
    02:00 +5°C° 0 mm 2 mps 700 mmHg 94%
    03:00 +6°C° 0 mm 1 mps 699 mmHg 92%
    04:00 +6°C° 0 mm 1 mps 699 mmHg 90%
    05:00 +6°C° 0 mm 1 mps 699 mmHg 88%
    06:00 +5°C° 0 mm 1 mps 699 mmHg 88%
    07:00 +5°C° 0 mm 1 mps 699 mmHg 96%
    08:00 +3°C° 0.3 mm 0 mps 699 mmHg 100%
    09:00 +3°C° 0.4 mm 2 mps 699 mmHg 100%
    10:00 +3°C° 1.5 mm 2 mps 700 mmHg 100%
    11:00 +3°C° 0.2 mm 3 mps 701 mmHg 100%
    12:00 +3°C° 0.4 mm 4 mps 701 mmHg 100%
    13:00 +2°C° 0.3 mm 5 mps 701 mmHg 100%
    14:00 +1°C° 0.4 mm 6 mps 701 mmHg 100%
    15:00 +1°C° 0.3 mm 6 mps 702 mmHg 100%
    16:00 0°C° 0.4 mm 5 mps 702 mmHg 100%
    17:00 -1°C° 0.5 mm 5 mps 702 mmHg 100%
    18:00 -2°C° 0.1 mm 4 mps 702 mmHg 100%
    19:00 -2°C° 0.4 mm 4 mps 702 mmHg 100%
    20:00 -2°C° 0.6 mm 3 mps 703 mmHg 100%
    21:00 -3°C° 0.4 mm 4 mps 703 mmHg 100%
    22:00 -4°C° 0.2 mm 4 mps 703 mmHg 100%
    23:00 -4°C° 0.4 mm 4 mps 704 mmHg 100%

    Tomorrow, 31 March, Tuesday

    Time Temperature Precipitation Wind Pressure Humidity
    00:00 -5°C° 0.2 mm 4 mps 703 mmHg 100%
    01:00 -7°C° 0.1 mm 4 mps 704 mmHg 100%
    02:00 -7°C° 0 mm 4 mps 704 mmHg 100%
    03:00 -6°C° 0 mm 3 mps 704 mmHg 100%
    04:00 -6°C° 0 mm 3 mps 704 mmHg 100%
    05:00 -6°C° 0 mm 3 mps 704 mmHg 100%
    06:00 -7°C° 0 mm 3 mps 705 mmHg 100%
    07:00 -7°C° 0 mm 3 mps 705 mmHg 100%
    08:00 -6°C° 0 mm 3 mps 705 mmHg 100%
    09:00 -5°C° 0 mm 3 mps 706 mmHg 98%
    10:00 -5°C° 0 mm 3 mps 706 mmHg 95%
    11:00 -4°C° 0 mm 3 mps 707 mmHg 95%
    12:00 -2°C° 0 mm 3 mps 707 mmHg 100%
    13:00 -2°C° 0.1 mm 4 mps 707 mmHg 94%
    14:00 -2°C° 0.1 mm 4 mps 707 mmHg 90%
    15:00 -1°C° 0.1 mm 4 mps 707 mmHg 88%
    16:00 0°C° 0.1 mm 3 mps 707 mmHg 96%
    17:00 0°C° 0.2 mm 3 mps 707 mmHg 91%
    18:00 -1°C° 0.2 mm 3 mps 707 mmHg 100%
    19:00 -2°C° 0.2 mm 3 mps 707 mmHg 100%
    20:00 -2°C° 0.1 mm 2 mps 708 mmHg 100%
    21:00 -3°C° 0.1 mm 2 mps 708 mmHg 100%
    22:00 -1°C° 0 mm 1 mps 707 mmHg 100%
    23:00 -1°C° 0 mm 1 mps 708 mmHg 100%

    Day after tomorrow, 1 April, Wednesday

    Time Temperature Precipitation Wind Pressure Humidity
    00:00 -1°C° 0 mm 1 mps 708 mmHg 100%
    01:00 -2°C° 0 mm 1 mps 707 mmHg 100%
    02:00 -2°C° 0 mm 1 mps 708 mmHg 100%
    03:00 -5°C° 0 mm 2 mps 707 mmHg 100%
    04:00 -8°C° 0 mm 3 mps 706 mmHg 100%
    05:00 -9°C° 0 mm 3 mps 706 mmHg 100%
    06:00 -8°C° 0 mm 3 mps 706 mmHg 97%
    07:00 -6°C° 0 mm 2 mps 706 mmHg 90%
    08:00 -5°C° 0 mm 2 mps 707 mmHg 87%
    09:00 -3°C° 0 mm 2 mps 707 mmHg 84%
    10:00 -1°C° 0 mm 2 mps 707 mmHg 74%
    11:00 +3°C° 0 mm 1 mps 708 mmHg 61%
    12:00 +3°C° 0 mm 1 mps 708 mmHg 57%
    13:00 +4°C° 0 mm 1 mps 708 mmHg 58%
    14:00 +5°C° 0 mm 1 mps 707 mmHg 62%
    15:00 +5°C° 0 mm 1 mps 707 mmHg 66%
    16:00 +4°C° 0 mm 2 mps 706 mmHg 68%
    17:00 +4°C° 0 mm 2 mps 706 mmHg 74%
    18:00 +3°C° 0 mm 2 mps 705 mmHg 81%
    19:00 +2°C° 0.1 mm 2 mps 705 mmHg 92%
    20:00 +1°C° 0 mm 2 mps 705 mmHg 94%
    21:00 0°C° 0 mm 3 mps 705 mmHg 95%
    22:00 -1°C° 0 mm 3 mps 704 mmHg 94%
    23:00 -2°C° 0 mm 3 mps 704 mmHg 97%

    2 April, Thursday

    Time Temperature Precipitation Wind Pressure Humidity
    00:00 -4°C° 0 mm 3 mps 704 mmHg 99%
    01:00 -5°C° 0 mm 3 mps 703 mmHg 100%
    02:00 -4°C° 0 mm 3 mps 703 mmHg 93%
    03:00 -4°C° 0 mm 3 mps 703 mmHg 87%
    04:00 -4°C° 0 mm 3 mps 703 mmHg 85%
    05:00 -4°C° 0 mm 4 mps 703 mmHg 83%
    06:00 -4°C° 0 mm 4 mps 702 mmHg 89%
    07:00 -4°C° 0 mm 5 mps 703 mmHg 93%
    08:00 -2°C° 0 mm 5 mps 703 mmHg 96%
    09:00 -1°C° 0 mm 5 mps 703 mmHg 93%
    10:00 +1°C° 0 mm 5 mps 703 mmHg 87%
    11:00 +2°C° 0 mm 5 mps 703 mmHg 84%
    12:00 +3°C° 0 mm 5 mps 704 mmHg 81%
    13:00 +3°C° 0 mm 6 mps 704 mmHg 81%
    14:00 +5°C° 0 mm 5 mps 703 mmHg 82%
    15:00 +5°C° 0 mm 5 mps 703 mmHg 89%
    16:00 +5°C° 0 mm 5 mps 703 mmHg 85%
    17:00 +5°C° 0 mm 4 mps 702 mmHg 89%
    18:00 +4°C° 0 mm 3 mps 702 mmHg 96%
    19:00 +3°C° 0 mm 3 mps 701 mmHg 89%
    20:00 +1°C° 0 mm 4 mps 701 mmHg 90%
    21:00 0°C° 0 mm 4 mps 701 mmHg 91%
    22:00 0°C° 0 mm 4 mps 701 mmHg 93%
    23:00 -1°C° 0 mm 4 mps 701 mmHg 93%

    3 April, Friday

    Time Temperature Precipitation Wind Pressure Humidity
    00:00 -1°C° 0 mm 4 mps 701 mmHg 94%
    01:00 -1°C° 0 mm 4 mps 701 mmHg 98%
    02:00 -1°C° 0 mm 4 mps 701 mmHg 100%
    03:00 0°C° 0 mm 3 mps 700 mmHg 100%
    04:00 -1°C° 0 mm 4 mps 700 mmHg 99%
    05:00 0°C° 0 mm 4 mps 700 mmHg 97%
    06:00 0°C° 0 mm 4 mps 700 mmHg 97%
    07:00 0°C° 0 mm 4 mps 700 mmHg 98%
    08:00 +3°C° 0 mm 4 mps 700 mmHg 97%
    09:00 +4°C° 0 mm 4 mps 701 mmHg 96%
    10:00 +5°C° 0 mm 5 mps 701 mmHg 95%
    11:00 +5°C° 0 mm 5 mps 701 mmHg 94%
    12:00 +6°C° 0 mm 5 mps 701 mmHg 94%
    13:00 +7°C° 0 mm 5 mps 701 mmHg 93%
    14:00 +7°C° 0 mm 5 mps 700 mmHg 93%
    15:00 +7°C° 0 mm 5 mps 700 mmHg 93%
    16:00 +7°C° 0 mm 4 mps 700 mmHg 94%
    17:00 +7°C° 0 mm 4 mps 699 mmHg 95%
    18:00 +6°C° 0 mm 4 mps 699 mmHg 96%
    19:00 +5°C° 0 mm 3 mps 699 mmHg 97%
    20:00 +5°C° 0 mm 2 mps 699 mmHg 99%
    21:00 +4°C° 0 mm 3 mps 699 mmHg 98%
    22:00 +3°C° 0 mm 4 mps 700 mmHg 97%
    23:00 +2°C° 0 mm 5 mps 700 mmHg 97%

    4 April, Saturday

    Time Temperature Precipitation Wind Pressure Humidity
    00:00 +2°C° 0 mm 5 mps 700 mmHg 97%
    01:00 +1°C° 0 mm 5 mps 700 mmHg 99%
    02:00 +1°C° 0 mm 4 mps 700 mmHg 100%
    03:00 +4°C° 0 mm 1 mps 701 mmHg 100%
    04:00 +4°C° 0 mm 1 mps 701 mmHg 100%
    05:00 0°C° 0.7 mm 3 mps 701 mmHg 100%
    06:00 +1°C° 1.1 mm 2 mps 702 mmHg 100%
    07:00 -1°C° 0.7 mm 2 mps 702 mmHg 100%
    08:00 +2°C° 0.9 mm 1 mps 703 mmHg 100%
    09:00 +2°C° 0.4 mm 1 mps 704 mmHg 100%
    10:00 +1°C° 0.3 mm 3 mps 705 mmHg 100%
    11:00 +2°C° 0 mm 3 mps 705 mmHg 95%
    12:00 +2°C° 0.3 mm 3 mps 705 mmHg 98%
    13:00 +1°C° 0.2 mm 4 mps 706 mmHg 94%
    14:00 +3°C° 0.2 mm 3 mps 706 mmHg 89%
    15:00 +3°C° 0.1 mm 4 mps 706 mmHg 78%
    16:00 +3°C° 0 mm 4 mps 706 mmHg 76%
    17:00 +3°C° 0 mm 4 mps 706 mmHg 71%
    18:00 +1°C° 0 mm 5 mps 707 mmHg 95%
    19:00 +1°C° 0.3 mm 3 mps 707 mmHg 100%
    20:00 0°C° 0.1 mm 3 mps 708 mmHg 100%
    21:00 0°C° 0.1 mm 3 mps 709 mmHg 100%
    22:00 -1°C° 0.2 mm 3 mps 709 mmHg 100%
    23:00 -1°C° 0.1 mm 2 mps 710 mmHg 100%
    Show more